Location: Asheville, NC
(35.6000°N, 82.5500°W)
Time: 18:49:17
(UTC-04:00)

Vanguard 2 - Pass Details

Date: 07 December 2017
Orbit: 553 x 2939 km, 32.9° (Epoch: 23 April)

Event Time Altitude Azimuth Distance (km) Brightness Sun altitude
Rises 16:25:33 0° 222° (SW) 3,888 13.1 8.1°
Reaches altitude 10° 16:29:20 10° 207° (SSW) 2,551 11.5 7.4°
Maximum altitude 16:33:31 21° 160° (SSE) 1,587 9.4 6.7°
Drops below altitude 10° 16:36:50 10° 111° (ESE) 1,971 9.3 6.2°
Sets 16:39:19 0° 93° (E) 2,763 9.9 5.7°
